Regional Weather Roundup
Issued by NWS Midland/Odessa, TX

Skip options and go directly to product.
Home | Oldest Version | Previous Version | Current Version | All | Graphics & Text | Save Text | Print | Product List | Glossary On

Skip product version selection by date and time.   
539
ASUS44 KMAF 121610
RWRMAF
MIDLAND AREA WEATHER ROUNDUP
NATIONAL WEATHER SERVICE MIDLAND TX
1000 AM CST FRI FEB 12 2016

...IN SOUTHWEST TEXAS AND SOUTHEAST NEW MEXICO...

CITY           SKY/WX    TMP DP  RH WIND       PRES   REMARKS
ALPINE         SUNNY     65  17  15 S3        30.39S
ANDREWS        FAIR      52  29  40 CALM      30.32R
ARTESIA        SUNNY     52  23  32 N15       30.35R
BIG SPRING     SUNNY     50  32  49 CALM      30.33R
CARLSBAD       SUNNY     52  20  28 N17       30.33R
DRYDEN           N/A     69  23  17 VRB5      30.25R
FORT STOCKTON  SUNNY     59  23  25 CALM      30.31R
GUAD PASS      SUNNY     53  13  20 SW6       30.37R
HOBBS          SUNNY     55  23  28 CALM      30.32R
MARFA          SUNNY     58  14  17 CALM      30.38R
MIDLAND AIRPK  SUNNY     53  33  46 NW3       30.31R
MIDLAND INTL   SUNNY     54  32  43 N8        30.30R
ODESSA         SUNNY     58  30  34 CALM      30.31R
PECOS          SUNNY     47  25  42 NW8       30.31R
PRESIDIO       FAIR      53  20  27 MISG      30.33R
SEMINOLE       SUNNY     54  28  37 SW3       30.32S
SNYDER           N/A     54  34  45 NE6       30.32R
WINK           SUNNY     53  28  38 NW6       30.29R
$$
...OTHER STATIONS IN TEXAS...

CITY           SKY/WX    TMP DP  RH WIND       PRES   REMARKS
ABILENE        SUNNY     50  35  56 CALM      30.31R
AMARILLO       SUNNY     49  29  46 NE15      30.36R
AUSTIN         SUNNY     66  49  54 S7        30.24R
BROWNSVILLE    SUNNY     70  62  76 S20       30.24R
CORPUS CHRISTI SUNNY     71  60  68 S17       30.24R
DALLAS FTW     SUNNY     53  35  50 VRB5      30.29R
DEL RIO        SUNNY     59  38  45 CALM      30.24R
EL PASO        SUNNY     50  17  27 N5        30.33R
HOUSTON INT    MOSUNNY   63  58  83 SW9       30.26S
LUBBOCK        SUNNY     55  28  35 NE7       30.31R
SAN ANGELO     SUNNY     54  32  43 CALM      30.28R
SAN ANTONIO    SUNNY     64  48  56 NE5       30.26R
WACO           SUNNY     57  39  51 N9        30.26R
WICHITA FALLS  NOT AVBL
$$
...OTHER LOCATIONS IN NEW MEXICO...

CITY           SKY/WX    TMP DP  RH WIND       PRES   REMARKS
ALAMAGORDO     SUNNY     46  19  34 S3        30.35R
ALBUQUERQUE    SUNNY     42  20  41 NW6       30.42R WCI  38
CANNON AFB     SUNNY     49  25  39 NE18      30.31R
CLOVIS         SUNNY     48  25  40 NE16      30.33R
HOLLOMAN AFB   CLOUDY    46  13  27 S1        30.34R
ROSWELL        SUNNY     53  22  29 N12       30.33R
RUIDOSO          N/A     54   9  16 NW12      30.42R
SANTA FE       SUNNY     40  19  43 N12       30.41R WCI  33
TRUTH OR CONSE SUNNY     48  14  25 E3        30.38R
TUCUMCARI      SUNNY     52  24  33 N10       30.36R
$$

USA.gov is the U.S. government's official web portal to all federal, state and local government web resources and services.